BCS5781 EVRA-EPGD

Flight info

Callsign BCS5781
Flight time 1h 7m
Altitude 36000
Route TENSI L73 EVONA DCT TESPO/N0453F370 DCT PENOR DCT MOTAD N133 DOMAG T240 OGDAV
Aircraft B752/M-SDE2E3FGHIJ3J4J7RWXY/LB1

Departure

Time 2026-04-27 09:45
Airport Riga International Airport (EVRA)

Arrival

Time 2026-04-27 10:53
Airport Gdańsk Lech Wałęsa Airport (EPGD)
Time Latitude Longitude Altitude Speed Heading
2026-04-27 09:23 56.92696 23.97684 11 ft 0 kts 275°
2026-04-27 09:38 56.92696 23.97685 10 ft 0 kts 275°
2026-04-27 09:38 56.92695 23.97710 10 ft 2 kts 274°
2026-04-27 09:38 56.92695 23.97728 10 ft 2 kts 266°
2026-04-27 09:38 56.92699 23.97753 10 ft 2 kts 231°
2026-04-27 09:39 56.92711 23.97770 10 ft 2 kts 201°
2026-04-27 09:39 56.92719 23.97774 10 ft 1 kts 184°
2026-04-27 09:39 56.92724 23.97774 10 ft 0 kts 185°
2026-04-27 09:41 56.92723 23.97774 10 ft 1 kts 185°
2026-04-27 09:41 56.92656 23.97762 10 ft 14 kts 186°
2026-04-27 09:41 56.92610 23.97680 10 ft 9 kts 262°
2026-04-27 09:42 56.92593 23.97567 10 ft 10 kts 228°
2026-04-27 09:42 56.92507 23.97535 10 ft 16 kts 183°
2026-04-27 09:42 56.92353 23.97502 10 ft 26 kts 186°
2026-04-27 09:42 56.92164 23.97465 10 ft 28 kts 186°
2026-04-27 09:43 56.91964 23.97437 10 ft 28 kts 181°
2026-04-27 09:43 56.91762 23.97409 10 ft 29 kts 186°
2026-04-27 09:43 56.91555 23.97376 10 ft 30 kts 185°
2026-04-27 09:43 56.91358 23.97341 10 ft 27 kts 186°
2026-04-27 09:44 56.91164 23.97304 10 ft 30 kts 185°
2026-04-27 09:44 56.90962 23.97228 10 ft 29 kts 205°
2026-04-27 09:44 56.90763 23.97155 10 ft 29 kts 185°
2026-04-27 09:44 56.90649 23.97000 10 ft 22 kts 265°
2026-04-27 09:45 56.90756 23.96854 10 ft 32 kts
2026-04-27 09:45 56.91242 23.96930 10 ft 107 kts
2026-04-27 09:45 56.92192 23.97092 159 ft 160 kts
2026-04-27 09:45 56.93367 23.97271 782 ft 187 kts
2026-04-27 09:46 56.94779 23.97483 1484 ft 212 kts
2026-04-27 09:46 56.96151 23.97489 2533 ft 201 kts 346°
2026-04-27 09:46 56.97380 23.96157 2973 ft 219 kts 313°
2026-04-27 09:46 56.98072 23.93569 3056 ft 237 kts 282°
2026-04-27 09:47 56.97832 23.90583 3552 ft 249 kts 248°
2026-04-27 09:47 56.96778 23.88069 4465 ft 252 kts 233°
2026-04-27 09:47 56.95612 23.85693 5216 ft 255 kts 234°
2026-04-27 09:47 56.94427 23.83285 5940 ft 260 kts 233°
2026-04-27 09:48 56.93275 23.80610 6340 ft 276 kts 240°
2026-04-27 09:48 56.92436 23.77544 7122 ft 269 kts 264°
2026-04-27 09:48 56.92426 23.74242 7913 ft 262 kts 285°
2026-04-27 09:48 56.92752 23.71013 8742 ft 263 kts 286°
2026-04-27 09:49 56.93100 23.67738 9475 ft 267 kts 288°
2026-04-27 09:49 56.93830 23.64716 10251 ft 261 kts 311°
2026-04-27 09:49 56.95017 23.62117 10702 ft 275 kts 314°
2026-04-27 09:49 56.96301 23.59370 11096 ft 292 kts 314°
2026-04-27 09:50 56.97636 23.56551 11884 ft 295 kts 314°
2026-04-27 09:50 56.98976 23.53740 12672 ft 299 kts 315°
2026-04-27 09:50 57.00344 23.50887 13503 ft 299 kts 315°
2026-04-27 09:50 57.01712 23.48038 14282 ft 300 kts 315°
2026-04-27 09:51 57.03081 23.45190 14990 ft 302 kts 314°
2026-04-27 09:51 57.04239 23.41997 15711 ft 308 kts 298°
2026-04-27 09:51 57.04803 23.38169 16338 ft 319 kts 285°
2026-04-27 09:51 57.05059 23.34132 17013 ft 320 kts 284°
2026-04-27 09:52 57.05327 23.30040 17570 ft 323 kts 284°
2026-04-27 09:52 57.05578 23.26015 18212 ft 323 kts 284°
2026-04-27 09:52 57.05829 23.21923 18860 ft 322 kts 285°
2026-04-27 09:52 57.06074 23.17853 19378 ft 325 kts 285°
2026-04-27 09:53 57.06322 23.13701 19955 ft 327 kts 285°
2026-04-27 09:53 57.06568 23.09553 20461 ft 329 kts 285°
2026-04-27 09:53 57.06811 23.05379 20973 ft 331 kts 285°
2026-04-27 09:53 57.07051 23.01236 21601 ft 329 kts 286°
2026-04-27 09:54 57.07295 22.97030 21998 ft 334 kts 286°
2026-04-27 09:54 57.07534 22.92854 22592 ft 332 kts 286°
2026-04-27 09:54 57.07776 22.88631 22972 ft 336 kts 286°
2026-04-27 09:54 57.08018 22.84333 23475 ft 337 kts 286°
2026-04-27 09:55 57.08255 22.80101 23929 ft 339 kts 287°
2026-04-27 09:55 57.08498 22.75807 24347 ft 340 kts 286°
2026-04-27 09:55 57.08979 22.67125 25150 ft 345 kts 286°
2026-04-27 09:56 57.09218 22.62731 25603 ft 347 kts 285°
2026-04-27 09:56 57.09203 22.58263 26013 ft 361 kts 276°
2026-04-27 09:56 57.08778 22.53645 26283 ft 373 kts 271°
2026-04-27 09:56 57.08292 22.49032 26800 ft 371 kts 271°
2026-04-27 09:57 57.07796 22.44319 26979 ft 378 kts 271°
2026-04-27 09:57 57.07288 22.39612 27470 ft 377 kts 271°
2026-04-27 09:57 57.06779 22.34936 27853 ft 378 kts 271°
2026-04-27 09:57 57.06488 22.30224 28122 ft 367 kts 281°
2026-04-27 09:58 57.06633 22.25584 28521 ft 362 kts 284°
2026-04-27 09:58 57.06852 22.21000 28767 ft 366 kts 285°
2026-04-27 09:58 57.07073 22.16331 29207 ft 365 kts 285°
2026-04-27 09:58 57.07298 22.11722 29487 ft 368 kts 285°
2026-04-27 09:59 57.07528 22.07070 29789 ft 370 kts 285°
2026-04-27 09:59 57.07759 22.02357 30246 ft 368 kts 285°
2026-04-27 09:59 57.07990 21.97714 30436 ft 373 kts 285°
2026-04-27 09:59 57.08225 21.92922 30737 ft 374 kts 285°
2026-04-27 10:00 57.08456 21.88206 30882 ft 379 kts 285°
2026-04-27 10:00 57.08691 21.83373 31225 ft 379 kts 285°
2026-04-27 10:00 57.08925 21.78533 31466 ft 381 kts 285°
2026-04-27 10:00 57.09158 21.73677 31584 ft 386 kts 284°
2026-04-27 10:01 57.09389 21.68818 31816 ft 388 kts 284°
2026-04-27 10:01 57.09621 21.63881 32183 ft 386 kts 284°
2026-04-27 10:01 57.09850 21.58958 32437 ft 387 kts 284°
2026-04-27 10:01 57.10077 21.54057 32685 ft 388 kts 284°
2026-04-27 10:02 57.10301 21.49161 33051 ft 386 kts 284°
2026-04-27 10:02 57.10528 21.44197 33236 ft 388 kts 284°
2026-04-27 10:02 57.10749 21.39277 33483 ft 388 kts 284°
2026-04-27 10:02 57.10970 21.34362 33716 ft 388 kts 283°
2026-04-27 10:03 57.11188 21.29424 33955 ft 389 kts 283°
2026-04-27 10:03 57.11406 21.24480 34121 ft 391 kts 283°
2026-04-27 10:03 57.11624 21.19466 34423 ft 389 kts 283°
2026-04-27 10:03 57.11838 21.14524 34607 ft 391 kts 282°
2026-04-27 10:04 57.12051 21.09546 34828 ft 390 kts 283°
2026-04-27 10:04 57.12264 21.04550 34934 ft 393 kts 282°
2026-04-27 10:04 57.12473 20.99550 35119 ft 394 kts 282°
2026-04-27 10:04 57.12683 20.94514 35351 ft 392 kts 282°
2026-04-27 10:05 57.13094 20.84477 35667 ft 394 kts 281°
2026-04-27 10:05 57.13296 20.79471 35798 ft 396 kts 281°
2026-04-27 10:05 57.13497 20.74451 35886 ft 398 kts 281°
2026-04-27 10:06 57.13695 20.69410 36057 ft 397 kts 281°
2026-04-27 10:06 57.13897 20.64271 36129 ft 400 kts 281°
2026-04-27 10:06 57.14288 20.54116 36174 ft 399 kts 281°
2026-04-27 10:07 57.14673 20.43963 36183 ft 398 kts 281°
2026-04-27 10:07 57.15050 20.33814 36184 ft 399 kts 280°
2026-04-27 10:08 57.15421 20.23608 36196 ft 400 kts 280°
2026-04-27 10:08 57.15780 20.13484 36191 ft 398 kts 280°
2026-04-27 10:09 57.16134 20.03310 36195 ft 399 kts 280°
2026-04-27 10:09 57.15890 19.93043 36217 ft 413 kts 265°
2026-04-27 10:10 57.15019 19.87966 36225 ft 425 kts 254°
2026-04-27 10:10 57.13702 19.83060 36217 ft 431 kts 250°
2026-04-27 10:10 57.10912 19.73360 36195 ft 427 kts 250°
2026-04-27 10:11 57.09537 19.68617 35899 ft 428 kts 250°
2026-04-27 10:11 57.08130 19.63790 36246 ft 430 kts 250°
2026-04-27 10:11 57.05298 19.54132 36036 ft 424 kts 250°
2026-04-27 10:12 57.03915 19.49441 36182 ft 421 kts 250°
2026-04-27 10:12 57.02521 19.44707 36170 ft 423 kts 250°
2026-04-27 10:12 56.99704 19.35184 36217 ft 429 kts 250°
2026-04-27 10:13 56.96847 19.25577 36216 ft 432 kts 249°
2026-04-27 10:13 56.93969 19.15940 36212 ft 430 kts 249°
2026-04-27 10:14 56.91111 19.06410 36228 ft 431 kts 249°
2026-04-27 10:14 56.88221 18.96806 36211 ft 430 kts 248°
2026-04-27 10:15 56.85368 18.87370 36217 ft 428 kts 248°
2026-04-27 10:15 56.82478 18.77842 36214 ft 429 kts 248°
2026-04-27 10:16 56.79581 18.68338 36224 ft 430 kts 248°
2026-04-27 10:16 56.76679 18.58850 36224 ft 429 kts 248°
2026-04-27 10:17 56.73797 18.49470 36230 ft 428 kts 248°
2026-04-27 10:17 56.70871 18.39979 36226 ft 430 kts 248°
2026-04-27 10:18 56.67969 18.30610 36234 ft 429 kts 247°
2026-04-27 10:18 56.65027 18.21144 36229 ft 429 kts 246°
2026-04-27 10:19 56.62095 18.11751 36231 ft 429 kts 247°
2026-04-27 10:19 56.59145 18.02335 36236 ft 430 kts 246°
2026-04-27 10:20 56.56200 17.92975 36234 ft 429 kts 246°
2026-04-27 10:20 56.53250 17.83633 36242 ft 429 kts 246°
2026-04-27 10:21 56.50300 17.74328 36240 ft 429 kts 246°
2026-04-27 10:21 56.47337 17.65020 36255 ft 430 kts 246°
2026-04-27 10:22 56.44356 17.55692 36245 ft 430 kts 246°
2026-04-27 10:22 56.41377 17.46405 36246 ft 430 kts 246°
2026-04-27 10:23 56.38365 17.37120 36251 ft 431 kts 243°
2026-04-27 10:23 56.36544 17.32832 36266 ft 438 kts 232°
2026-04-27 10:23 56.34276 17.29068 36277 ft 448 kts 222°
2026-04-27 10:24 56.28720 17.23748 36270 ft 461 kts 202°
2026-04-27 10:24 56.22411 17.21846 36273 ft 470 kts 187°
2026-04-27 10:25 56.15883 17.21155 36260 ft 468 kts 187°
2026-04-27 10:25 56.09411 17.20503 36255 ft 468 kts 187°
2026-04-27 10:26 56.02929 17.19870 36258 ft 468 kts 187°
2026-04-27 10:26 55.96445 17.19244 36257 ft 468 kts 186°
2026-04-27 10:27 55.89973 17.18622 36257 ft 467 kts 186°
2026-04-27 10:27 55.83488 17.18003 36250 ft 468 kts 186°
2026-04-27 10:28 55.77079 17.17397 36240 ft 450 kts 187°
2026-04-27 10:28 55.70949 17.16813 36250 ft 444 kts 187°
2026-04-27 10:29 55.64740 17.16962 36262 ft 456 kts 173°
2026-04-27 10:29 55.61657 17.18292 36265 ft 462 kts 162°
2026-04-27 10:29 55.58670 17.20448 36265 ft 467 kts 157°
2026-04-27 10:30 55.52735 17.25172 36254 ft 474 kts 157°
2026-04-27 10:30 55.46658 17.30036 35980 ft 478 kts 156°
2026-04-27 10:31 55.43676 17.32427 35973 ft 464 kts 157°
2026-04-27 10:31 55.40802 17.34730 35791 ft 458 kts 157°
2026-04-27 10:31 55.37917 17.37036 35420 ft 458 kts 157°
2026-04-27 10:31 55.35036 17.39338 35051 ft 457 kts 156°
2026-04-27 10:32 55.32133 17.41654 34601 ft 456 kts 157°
2026-04-27 10:32 55.29248 17.43952 33974 ft 457 kts 157°
2026-04-27 10:32 55.26345 17.46260 33331 ft 459 kts 156°
2026-04-27 10:32 55.23471 17.48543 32655 ft 461 kts 156°
2026-04-27 10:33 55.20516 17.50878 32019 ft 462 kts 157°
2026-04-27 10:33 55.17605 17.53120 31473 ft 460 kts 157°
2026-04-27 10:33 55.14700 17.55353 31034 ft 456 kts 157°
2026-04-27 10:33 55.11805 17.57576 30533 ft 453 kts 157°
2026-04-27 10:34 55.08938 17.59773 30027 ft 450 kts 157°
2026-04-27 10:34 55.06097 17.61947 29540 ft 447 kts 157°
2026-04-27 10:34 55.03238 17.64132 29028 ft 445 kts 157°
2026-04-27 10:34 55.00422 17.66315 28534 ft 442 kts 155°
2026-04-27 10:35 54.97809 17.69001 28010 ft 440 kts 144°
2026-04-27 10:35 54.95483 17.72458 27493 ft 437 kts 134°
2026-04-27 10:35 54.93373 17.76164 27003 ft 434 kts 134°
2026-04-27 10:35 54.91254 17.79914 26496 ft 432 kts 133°
2026-04-27 10:36 54.89194 17.83602 26027 ft 429 kts 133°
2026-04-27 10:36 54.87116 17.87337 25539 ft 425 kts 133°
2026-04-27 10:36 54.85088 17.90992 25037 ft 423 kts 133°
2026-04-27 10:36 54.83042 17.94679 24526 ft 421 kts 133°
2026-04-27 10:37 54.81026 17.98302 24372 ft 409 kts 134°
2026-04-27 10:37 54.78912 18.01431 24253 ft 397 kts 142°
2026-04-27 10:37 54.76716 18.04312 23780 ft 396 kts 142°
2026-04-27 10:37 54.74540 18.07177 23372 ft 394 kts 142°
2026-04-27 10:38 54.72367 18.10019 22966 ft 391 kts 142°
2026-04-27 10:38 54.70206 18.12837 22525 ft 389 kts 142°
2026-04-27 10:38 54.68097 18.15610 21768 ft 385 kts 139°
2026-04-27 10:38 54.66215 18.18847 20852 ft 382 kts 130°
2026-04-27 10:39 54.64458 18.22203 20125 ft 376 kts 130°
2026-04-27 10:39 54.62700 18.25537 19238 ft 374 kts 130°
2026-04-27 10:39 54.60979 18.28813 18492 ft 369 kts 130°
2026-04-27 10:39 54.59284 18.32042 17725 ft 364 kts 130°
2026-04-27 10:40 54.57605 18.35241 16981 ft 360 kts 130°
2026-04-27 10:40 54.55940 18.38409 16251 ft 355 kts 129°
2026-04-27 10:40 54.54307 18.41512 15468 ft 352 kts 129°
2026-04-27 10:40 54.52663 18.44634 14711 ft 347 kts 130°
2026-04-27 10:41 54.51063 18.47669 13944 ft 345 kts 130°
2026-04-27 10:41 54.49479 18.50668 13273 ft 338 kts 130°
2026-04-27 10:41 54.47899 18.53657 12578 ft 334 kts 130°
2026-04-27 10:41 54.46360 18.56564 12013 ft 324 kts 130°
2026-04-27 10:42 54.44893 18.59330 11817 ft 304 kts 130°
2026-04-27 10:42 54.43508 18.61939 11496 ft 293 kts 129°
2026-04-27 10:42 54.42365 18.64755 10933 ft 285 kts 110°
2026-04-27 10:42 54.41584 18.67814 10399 ft 281 kts 110°
2026-04-27 10:43 54.40796 18.70882 9901 ft 277 kts 110°
2026-04-27 10:43 54.40034 18.73890 9379 ft 275 kts 110°
2026-04-27 10:43 54.39288 18.76852 8934 ft 270 kts 110°
2026-04-27 10:43 54.38556 18.79766 8362 ft 268 kts 110°
2026-04-27 10:44 54.37815 18.82662 7882 ft 265 kts 113°
2026-04-27 10:44 54.37047 18.85488 7395 ft 262 kts 112°
2026-04-27 10:44 54.36295 18.88337 6913 ft 259 kts 112°
2026-04-27 10:44 54.35576 18.91101 6434 ft 255 kts 112°
2026-04-27 10:45 54.34647 18.93645 5895 ft 255 kts 138°
2026-04-27 10:45 54.33165 18.95058 5500 ft 244 kts 170°
2026-04-27 10:45 54.31520 18.94996 5059 ft 235 kts 198°
2026-04-27 10:45 54.29944 18.94144 4595 ft 241 kts 201°
2026-04-27 10:46 54.28461 18.92923 4037 ft 235 kts 225°
2026-04-27 10:46 54.27580 18.90712 3607 ft 226 kts 255°
2026-04-27 10:46 54.27583 18.88199 3393 ft 204 kts 292°
2026-04-27 10:46 54.28083 18.85989 3262 ft 196 kts 294°
2026-04-27 10:47 54.28566 18.83858 3141 ft 188 kts 294°
2026-04-27 10:47 54.29033 18.81856 3132 ft 174 kts 295°
2026-04-27 10:47 54.29485 18.79961 3146 ft 171 kts 296°
2026-04-27 10:47 54.29954 18.78038 3165 ft 178 kts 296°
2026-04-27 10:48 54.30430 18.76099 3153 ft 177 kts 296°
2026-04-27 10:48 54.30908 18.74165 3147 ft 176 kts 296°
2026-04-27 10:48 54.31391 18.72221 3157 ft 177 kts 296°
2026-04-27 10:48 54.31871 18.70293 3141 ft 177 kts 296°
2026-04-27 10:49 54.32364 18.68323 2925 ft 183 kts 296°
2026-04-27 10:49 54.32864 18.66315 2684 ft 179 kts 296°
2026-04-27 10:49 54.33323 18.64461 2487 ft 160 kts 296°
2026-04-27 10:49 54.33736 18.62802 2264 ft 141 kts 298°
2026-04-27 10:50 54.34094 18.61361 2037 ft 126 kts 296°
2026-04-27 10:50 54.34420 18.60038 1849 ft 118 kts 296°
2026-04-27 10:50 54.34759 18.58699 1729 ft 127 kts 295°
2026-04-27 10:50 54.35110 18.57289 1537 ft 131 kts 298°
2026-04-27 10:51 54.35465 18.55871 1366 ft 128 kts 295°
2026-04-27 10:51 54.35811 18.54469 1188 ft 129 kts 297°
2026-04-27 10:51 54.36161 18.53056 1011 ft 129 kts 298°
2026-04-27 10:51 54.36507 18.51650 854 ft 128 kts 296°
2026-04-27 10:52 54.36855 18.50242 661 ft 127 kts 293°
2026-04-27 10:52 54.37199 18.48862 507 ft 126 kts 292°
2026-04-27 10:52 54.37523 18.47553 459 ft 109 kts 295°
2026-04-27 10:52 54.37731 18.46715 452 ft 50 kts 292°
2026-04-27 10:53 54.37858 18.46206 450 ft 35 kts 295°
2026-04-27 10:53 54.38085 18.45725 450 ft 13 kts 327°
2026-04-27 10:53 54.38143 18.45733 450 ft 7 kts 73°
2026-04-27 10:54 54.38121 18.45838 450 ft 10 kts 115°
2026-04-27 10:54 54.38084 18.46007 450 ft 18 kts 110°
2026-04-27 10:54 54.38043 18.46183 450 ft 15 kts 112°
2026-04-27 10:54 54.37999 18.46360 451 ft 17 kts 114°
2026-04-27 10:55 54.37947 18.46571 451 ft 20 kts 112°
2026-04-27 10:55 54.37862 18.46916 453 ft 28 kts 113°
2026-04-27 10:55 54.37842 18.47028 453 ft 5 kts 72°
2026-04-27 10:55 54.37899 18.47085 454 ft 10 kts 24°